Terminal Aerodrome Forecast
Issued by NWS Key West, FL

Home | Current Version | Previous Version | Text Only | Print | Product List | Glossary On
Versions: 1 2 3 4 5 6 7 8 9 10 11 12 13 14 15 16 17 18 19 20 21 22 23
000
FTUS42 KKEY 191500 AAC
TAFEYW
TAF AMD
KEYW 191509Z 1915/2012 33013KT P6SM FEW017
     FM191900 33013G17KT P6SM SCT018
      TEMPO 1919/1923 BKN018=

USA.gov is the U.S. government's official web portal to all federal, state and local government web resources and services.